Weather History for Dallas Addison, TX

Change the Weather History Date:

Monday, February 18, 2013

  Actual Average Record
Temperature  
Mean Temperature 62 °F -  
Max Temperature 75 °F 60 °F 80 °F (2011)
Min Temperature 50 °F 42 °F 24 °F (2006)
Degree Days  
Heating Degree Days 2    
Growing Degree Days 12 (Base 50)    
Moisture  
Dew Point 42 °F    
Average Humidity 56    
Maximum Humidity 77    
Minimum Humidity 28    
Precipitation  
Precipitation 0.00 in - - ()
Sea Level Pressure  
Sea Level Pressure 29.93 in    
Wind  
Wind Speed 15 mph (SW)    
Max Wind Speed 21 mph    
Max Gust Speed 37 mph    
Visibility 12 miles    
Events      
Averages and records for this station are not official NWS values.
T = Trace of Precipitation, MM = Missing Value Source: NWS Daily Summary

Daily Weather History Graph

Daily Weather History Graph

Search for Another Location

Airport:

Trip Planner

Search our weather history database for the weather conditions in past years. The results will help you decide how hot, cold, wet, or windy it might be!

Date:

Astronomy

Feb. 18, 2013 Rise Set
Actual Time 7:07 AM CST 6:15 PM CST
Civil Twilight 6:42 AM CST 6:40 PM CST
Nautical Twilight 6:13 AM CST 7:09 PM CST
Astronomical Twilight 5:44 AM CST 7:38 PM CST
Moon 12:11 PM CST (2/18) 1:39 AM CST (2/18)
Length of Visible Light 11h 58m
Length of Day
11h 08m
First Quarter, 58% of the Moon is Illuminated
Feb 18
First Quarter
Feb 25
Full
Mar 4
Last Quarter
Mar 11
New
Mar 19
First Quarter

Hourly Weather History & Observations

Time (CST) Temp. Dew Point Humidity Pressure Visibility Wind Dir Wind Speed Gust Speed Precip Events Conditions
12:15 AM 59.0 °F 42.8 °F 55% 29.90 in 10.0 mi South 18.4 mph 27.6 mph N/A   Clear
12:35 AM 57.2 °F 42.8 °F 59% 29.90 in 10.0 mi South 15.0 mph 26.5 mph N/A   Clear
12:55 AM 57.2 °F 42.8 °F 59% 29.90 in 10.0 mi South 15.0 mph 21.9 mph N/A   Scattered Clouds
1:15 AM 57.2 °F 44.6 °F 63% 29.90 in 10.0 mi South 17.3 mph 23.0 mph N/A   Scattered Clouds
1:35 AM 57.2 °F 44.6 °F 63% 29.89 in 10.0 mi South 18.4 mph 23.0 mph N/A   Mostly Cloudy
1:55 AM 57.2 °F 44.6 °F 63% 29.88 in 10.0 mi South 15.0 mph 24.2 mph N/A   Overcast
2:15 AM 57.2 °F 44.6 °F 63% 29.87 in 10.0 mi South 16.1 mph 23.0 mph N/A   Overcast
2:35 AM 57.2 °F 44.6 °F 63% 29.86 in 10.0 mi South 17.3 mph 25.3 mph N/A   Overcast
2:55 AM 57.2 °F 46.4 °F 67% 29.85 in 10.0 mi South 16.1 mph 27.6 mph N/A   Overcast
3:15 AM 59.0 °F 46.4 °F 63% 29.84 in 10.0 mi South 15.0 mph 26.5 mph N/A   Overcast
3:35 AM 59.0 °F 46.4 °F 63% 29.84 in 10.0 mi South 13.8 mph 24.2 mph N/A   Overcast
3:55 AM 59.0 °F 46.4 °F 63% 29.83 in 10.0 mi South 13.8 mph 23.0 mph N/A   Overcast
4:15 AM 59.0 °F 48.2 °F 67% 29.82 in 10.0 mi South 13.8 mph 23.0 mph N/A   Overcast
4:35 AM 59.0 °F 48.2 °F 67% 29.81 in 10.0 mi South 16.1 mph 25.3 mph N/A   Overcast
4:55 AM 59.0 °F 48.2 °F 67% 29.81 in 10.0 mi South 15.0 mph 24.2 mph N/A   Overcast
5:47 AM 59.0 °F 50.0 °F 72% 29.81 in 13.0 mi South 17.3 mph 26.5 mph N/A   Overcast
6:48 AM 59.0 °F 51.8 °F 77% 29.80 in 13.0 mi South 8.1 mph 23.0 mph N/A   Overcast
7:47 AM 60.8 °F 51.8 °F 72% 29.80 in 13.0 mi South 15.0 mph 25.3 mph N/A   Overcast
8:57 AM 62.6 °F 53.6 °F 72% 29.81 in 13.0 mi South 19.6 mph 31.1 mph N/A   Overcast
9:47 AM 64.4 °F 53.6 °F 68% 29.81 in 13.0 mi South 19.6 mph 33.4 mph N/A   Overcast
10:53 AM 68.0 °F 53.6 °F 60% 29.80 in 13.0 mi SSW 15.0 mph 31.1 mph N/A   Overcast
11:47 AM 71.6 °F 50.0 °F 46% 29.79 in 13.0 mi SW 18.4 mph 36.8 mph N/A   Mostly Cloudy
12:47 PM 75.2 °F 42.8 °F 31% 29.77 in 13.0 mi WSW 19.6 mph 32.2 mph N/A   Scattered Clouds
3:53 PM 66.2 °F 32.0 °F 28% 29.85 in 20.0 mi NW 20.7 mph 34.5 mph N/A   Partly Cloudy
6:50 PM 59.0 °F 32.0 °F 36% 29.98 in 20.0 mi NW 11.5 mph 18.4 mph N/A   Partly Cloudy
7:47 PM 57.2 °F 32.0 °F 38% 30.02 in 15.0 mi NW 8.1 mph 12.7 mph N/A   Clear
8:47 PM 53.6 °F 33.8 °F 47% 30.05 in 15.0 mi NW 5.8 mph - N/A   Clear
9:15 PM 53.6 °F 33.8 °F 47% 30.06 in 10.0 mi NW 5.8 mph - N/A   Clear
9:35 PM 51.8 °F 33.8 °F 50% 30.08 in 10.0 mi NNW 6.9 mph - N/A   Clear
9:47 PM 53.6 °F 33.8 °F 47% 30.09 in 15.0 mi NW 20.7 mph - N/A   Clear
9:55 PM 51.8 °F 33.8 °F 50% 30.10 in 10.0 mi NNW 6.9 mph - N/A   Clear
10:15 PM 51.8 °F 32.0 °F 47% 30.12 in 10.0 mi NNW 8.1 mph - N/A   Clear
10:35 PM 51.8 °F 32.0 °F 47% 30.13 in 10.0 mi NNW 9.2 mph - N/A   Clear
10:55 PM 51.8 °F 30.2 °F 44% 30.13 in 10.0 mi North 8.1 mph - N/A   Clear
11:15 PM 50.0 °F 30.2 °F 47% 30.14 in 10.0 mi North 9.2 mph - N/A   Clear
11:35 PM 50.0 °F 30.2 °F 47% 30.13 in 10.0 mi North 9.2 mph - N/A   Clear
11:55 PM 50.0 °F 28.4 °F 43% 30.13 in 10.0 mi North 9.2 mph - N/A   Clear